Retour au catalogue

STARLINK-5365

ActifCommunicationsVLEO
NORAD 55498·PAYLOAD·🇺🇸 United States

Lancé Feb 2, 2023 depuis Cape Canaveral Space Force Station

Loading…

Prochains Passages (prochaines 24 heures)

TLE

FraisSource: CelesTrak SupGP

Époque: Sep 15, 2026, 02:44 UTC

1 55498C 23015BB  26258.11437500  .00009647  00000+0  34947-3 0  2589
2 55498  43.0041 350.2353 0002357 271.4091  29.4683 15.27567960    18

Suivez STARLINK-5365 en temps réel avec AllMySat

Download on the App Store